Weather observations for the past three days for
Rochelle, Rochelle Municipal-Koritz Field Airport
Imperial (Metric)
Date Time (cdt) Wind (mph) Vis. (mi.) Weather Sky Cond. Temperature (ºF) Relative Humidity Wind Chill (°F) Heat Index (°F) Pressure Precipitation (in)
Air Dwpt 6 hour altimeter (in) sea level (mb) 1 hr 3 hr 6 hr
Max. Min.
16 15:35 W 8 10.00 Partly Cloudy SCT022 SCT029 80.1 70.9 74% 84 29.86 0.0
16 15:15 W 9 10.00 Fair CLR 81 71.2 72% 85 29.86 0.0
16 14:55 W 7 10.00 Fair CLR 79.9 70.3 73% 83 29.86 0.0
16 14:35 SW 6 10.00 Fair CLR 79.5 72 78% 83 29.86 0.0
16 14:15 W 6 10.00 Mostly Cloudy SCT019 SCT029 BKN050 78.4 71.2 79% 81 29.87 0.0
16 13:55 SW 7 10.00 Overcast SCT013 BKN033 OVC050 77.9 71.4 81% 80 29.87 0.0
16 13:35 SW 6 10.00 Overcast SCT013 BKN022 OVC031 77.4 71.8 83% 79 29.87 0.0
16 13:15 SW 7 10.00 Overcast BKN013 OVC018 77.7 71.4 81% 80 29.86 0.0
16 12:55 W 6 10.00 Overcast OVC012 75.7 70.5 75.9 66 84% 76 29.85 0.0
16 12:35 W 5 10.00 Overcast OVC010 75 70.3 85% 75 29.84 0.0
16 12:15 W 6 10.00 Overcast OVC010 74.8 70.7 87% 29.85 0.0
16 11:55 NW 6 10.00 Overcast OVC008 74.3 70.3 88% 29.85 0.0
16 11:35 W 5 7.00 Overcast OVC008 73.8 69.8 88% 29.85 0.0
16 11:15 W 7 7.00 Overcast OVC008 73.4 69.6 88% 29.85 0.0
16 10:55 W 3 7.00 Overcast OVC008 72.7 69.1 89% 29.84 0.0
16 10:35 W 6 10.00 Overcast OVC008 72.7 68.9 88% 29.83 0.0
16 10:15 W 5 10.00 Overcast OVC008 72.7 68.5 87% 29.84 0.0
16 09:55 SW 7 10.00 Overcast OVC008 72 68.2 88% 29.84 0.0
16 09:35 W 6 10.00 Overcast OVC008 71.6 67.8 88% 29.83 0.0
16 09:15 SW 6 10.00 Overcast OVC008 71.1 68 90% 29.83 0.0
16 08:55 W 5 10.00 Overcast OVC008 71.1 68.2 91% 29.83 0.0
16 08:35 SW 5 10.00 Overcast OVC004 70.5 68.5 93% 29.83 0.0
16 08:15 Calm 10.00 Overcast OVC004 69.6 67.8 94% 29.82 0.0
16 07:55 Calm 10.00 Partly Cloudy SCT004 68.9 67.3 95% 29.81 0.0
16 07:35 Calm 10.00 Fair CLR 68.2 66.6 95% 29.81 0.0
16 07:15 Calm 3.00 Fog/Mist SCT001 SCT050 67.1 65.3 94% 29.79 0.0
16 06:55 Calm 2.00 Fog/Mist BKN001 OVC050 65.7 64 68 64.4 95% 29.79 0.0
16 06:35 Calm 4.00 Fog/Mist SCT050 65.1 63.5 95% 29.79 0.0
16 06:15 Calm 3.00 Fog/Mist CLR 64.6 63 95% 29.78 0.0
16 05:55 Calm 4.00 Fog/Mist SCT050 64.6 63 95% 29.78 0.0
16 05:35 Calm 5.00 Fog/Mist SCT050 64.6 63 95% 29.79 0.0
16 05:15 Calm 4.00 Fog/Mist CLR 64.4 62.8 95% 29.78 0.0
16 04:55 SW 3 5.00 Fog/Mist SCT050 64.6 63 95% 29.79 0.0
16 04:35 Calm 5.00 Fog/Mist CLR 64.8 63.1 95% 29.79 0.0
16 04:15 Calm 5.00 Fog/Mist CLR 64.9 63.5 95% 29.77 0.0
16 03:55 Calm 7.00 Fair CLR 65.3 63.5 94% 29.77 0.0
16 03:35 Calm 7.00 Fair CLR 65.3 63.7 95% 29.78 0.0
16 03:15 Calm 10.00 Fair CLR 66.2 64.4 94% 29.78 0.0
16 02:55 S 3 10.00 Fair CLR 66.2 64.6 95% 29.78 0.0
16 02:35 Calm 7.00 Fair CLR 66.2 64.4 94% 29.78 0.0
16 02:15 Calm 10.00 Fair CLR 66.2 64.4 94% 29.79 0.0
16 01:55 Calm 10.00 Fair CLR 66.7 65.1 95% 29.79 0.0
16 01:35 Calm 10.00 Fair CLR 67.1 65.3 94% 29.8 0.0
16 01:15 Calm 10.00 Fair CLR 67.5 65.8 95% 29.81 0.0
16 00:55 Calm 10.00 Fair CLR 68 66.2 83.5 68 94% 29.81 0.0 0.66
16 00:35 W 5 10.00 Partly Cloudy SCT006 68 66.4 95% 29.81 0.0
16 00:15 SW 10 G 16 10.00 Partly Cloudy SCT006 68.2 66.4 94% 29.81 0.0
15 23:55 SW 9 10.00 Partly Cloudy SCT003 68.2 66.6 95% 29.8 0.0
15 23:35 W 9 10.00 Partly Cloudy SCT003 68.4 66.6 94% 29.75 0.0
15 23:15 Calm 10.00 Fair CLR 68.9 67.1 94% 29.74 0.0
15 22:55 Calm 10.00 Partly Cloudy SCT100 68.4 66.6 94% 29.76 0.0 0.03
15 22:35 SE 10 10.00 Light Rain SCT090 BKN110 68.4 66.6 94% 29.73 0.0 0.03
15 22:15 SW 9 10.00 Rain SCT075 OVC110 68.2 66.6 95% 29.81 0.0 0.02
15 21:55 SW 9 G 17 7.00 Rain SCT075 SCT085 OVC110 68.4 66.6 94% 29.81 0.0 0.04 0.63
15 21:35 W 12 10.00 Light Rain SCT007 SCT032 OVC110 68.9 67.1 94% 29.81 0.0 0.01
15 21:15 W 8 10.00 Light Rain BKN009 BKN029 OVC080 69.1 67.5 95% 29.78 0.0
15 20:55 NW 13 G 17 5.00 Rain BKN010 BKN023 OVC060 69.1 67.5 95% 29.77 0.0 0.58
15 20:35 W 17 G 37 1.50 Heavy Rain BKN011 OVC016 68 66.2 94% 29.75 0.0 0.49
15 19:55 S 12 10.00 Light Rain SCT110 82.8 79.2 89% 94 29.66 0.0
15 19:35 S 8 10.00 Mostly Cloudy BKN110 82.4 79.3 91% 93 29.69 0.0
15 19:15 S 7 10.00 Partly Cloudy SCT110 83.3 78.8 86% 94 29.68 0.0
15 18:55 S 8 10.00 Fair CLR 83.5 78.8 87.6 83.5 86% 95 29.69 0.0
15 18:35 S 6 10.00 Mostly Cloudy SCT029 SCT036 BKN110 84 79.3 86% 96 29.7 0.0
15 18:15 S 6 10.00 Mostly Cloudy BKN100 85.1 78.8 81% 98 29.72 0.0
15 17:55 S 10 10.00 Mostly Cloudy SCT029 SCT037 BKN100 86 77.4 75% 98 29.72 0.0
15 17:35 S 9 10.00 Partly Cloudy SCT027 SCT037 SCT100 86.9 77.2 73% 99 29.72 0.0
15 17:15 S 7 10.00 Fair CLR 87.1 77.2 72% 99 29.73 0.0
15 16:55 S 8 10.00 Partly Cloudy SCT028 86.9 76.5 71% 98 29.75 0.0
15 16:35 S 9 10.00 Partly Cloudy SCT026 87.4 76.6 70% 99 29.76 0.0
15 16:15 S 7 10.00 Partly Cloudy SCT026 SCT032 87.1 76.3 70% 98 29.77 0.0
15 15:55 S 8 10.00 Partly Cloudy SCT026 SCT032 87.1 76.6 71% 98 29.79 0.0
15 15:35 S 7 10.00 Partly Cloudy SCT027 SCT034 87.4 75.7 68% 98 29.81 0.0
15 15:15 S 7 10.00 Partly Cloudy SCT029 SCT034 86.2 75.7 71% 96 29.81 0.0
15 14:55 S 6 10.00 Partly Cloudy SCT023 SCT031 86.7 75.4 69% 96 29.81 0.0
15 14:35 SE 3 10.00 Partly Cloudy SCT023 87.1 74.8 67% 96 29.82 0.0
15 14:15 Calm 10.00 Partly Cloudy SCT025 86.4 74.1 67% 95 29.84 0.0
15 13:55 Calm 10.00 Fair CLR 86.5 74.1 67% 95 29.85 0.0
15 13:35 Calm 10.00 Partly Cloudy SCT019 85.8 74.1 68% 94 29.85 0.0
15 13:15 SW 3 10.00 Mostly Cloudy BKN019 84.9 75 72% 93 29.86 0.0
15 12:55 NW 5 10.00 Mostly Cloudy BKN017 BKN024 84.2 75.2 84.4 67.1 74% 92 29.87 0.0
15 12:35 Calm 10.00 Mostly Cloudy BKN017 84 74.8 74% 92 29.88 0.0
15 12:15 Calm 10.00 Partly Cloudy SCT017 83.5 74.7 75% 91 29.88 0.0
15 11:55 Calm 10.00 Fair CLR 82.4 73.8 75% 88 29.88 0.0
15 11:35 SW 3 10.00 Fair CLR 82.2 73.4 75% 88 29.88 0.0
15 11:15 Calm 10.00 Fair CLR 81.1 71.1 72% 85 29.88 0.0
15 10:35 Calm 10.00 Fair CLR 79.7 69.8 72% 83 29.89 0.0
15 10:15 Calm 10.00 Fair CLR 78.8 69.1 72% 81 29.88 0.0
15 09:55 Calm 10.00 Fair CLR 77.4 69.3 76% 79 29.88 0.0
15 09:35 Calm 10.00 Fair CLR 76.1 68.9 78% 77 29.87 0.0
15 09:15 Calm 10.00 Fair CLR 74.1 68.7 83% 29.87 0.0
15 08:55 Calm 10.00 Fair CLR 73.4 68.5 85% 29.88 0.0
15 08:35 Calm 10.00 Fair CLR 71.8 68.4 89% 29.88 0.0
15 08:15 Calm 10.00 Partly Cloudy SCT005 71.1 68.2 91% 29.89 0.0
15 07:55 Calm 10.00 Partly Cloudy SCT005 70.2 67.6 92% 29.89 0.0
15 07:35 Calm 10.00 Partly Cloudy SCT005 SCT009 68.9 67.1 94% 29.89 0.0
15 07:15 Calm 10.00 Partly Cloudy SCT009 67.8 66.2 95% 29.89 0.0
15 06:55 Calm 10.00 Fair CLR 67.1 65.3 69.3 64.4 94% 29.89 0.0 0.01
15 06:35 Calm 7.00 Fair CLR 65.8 64.2 95% 29.87 0.0
15 06:15 Calm 7.00 Fair CLR 65.3 63.5 94% 29.87 0.0
15 05:55 Calm 7.00 Fair CLR 64.6 63 95% 29.88 0.0
15 05:35 Calm 7.00 Fair CLR 64.4 62.8 95% 29.88 0.0
15 05:15 Calm 10.00 Fair CLR 64.9 63.5 95% 29.88 0.0
15 04:55 Calm 10.00 Fair CLR 65.3 63.5 94% 29.88 0.0
15 04:35 Calm 10.00 Fair CLR 65.8 64.2 95% 29.88 0.0
15 04:15 Calm 10.00 Fair CLR 66.2 64.6 95% 29.87 0.0
15 03:55 Calm 10.00 Fair CLR 66.7 65.3 95% 29.87 0.0 0.01
15 03:35 SW 3 10.00 Fair CLR 67.3 65.7 95% 29.88 0.0
15 03:15 W 3 10.00 Fair CLR 68 66.2 94% 29.87 0.0
15 02:55 SW 3 10.00 Partly Cloudy SCT004 68 66.4 95% 29.87 0.0
15 02:35 SW 6 10.00 Mostly Cloudy BKN004 68.4 66.6 94% 29.86 0.0
15 02:15 SW 6 10.00 Mostly Cloudy BKN004 68.5 66.7 94% 29.87 0.0
15 01:55 SW 5 10.00 Partly Cloudy SCT004 68.9 67.1 94% 29.88 0.0 0.01
15 01:35 Calm 10.00 Partly Cloudy SCT006 69.1 67.3 94% 29.87 0.0 0.01
15 01:15 S 3 10.00 Fair CLR 69.3 67.5 94% 29.87 0.0
15 00:55 S 6 10.00 Fair CLR 69.1 67.5 83.3 68.9 95% 29.86 0.0 1.55
15 00:35 Calm 10.00 Partly Cloudy SCT050 SCT060 69.4 67.6 94% 29.87 0.0
15 00:15 SE 7 10.00 Light Rain SCT047 BKN060 BKN110 70.3 68 92% 29.86 0.0
14 23:55 SE 8 10.00 Partly Cloudy SCT095 SCT120 70.2 67.8 92% 29.87 0.0
14 23:35 E 7 10.00 Light Rain SCT013 SCT018 SCT050 70.2 67.6 92% 29.88 0.0
14 23:15 NE 12 G 18 10.00 Light Drizzle SCT012 SCT050 BKN110 69.3 67.6 95% 29.86 0.0
14 22:55 SE 12 10.00 Light Rain SCT075 SCT080 SCT110 69.1 67.5 95% 29.86 0.0 0.17
14 22:35 NE 9 10.00 Light Rain SCT027 SCT060 BKN070 69.6 68 95% 29.88 0.0 0.16
14 22:15 E 9 2.50 Heavy Rain SCT013 BKN037 OVC080 68.9 67.3 95% 29.9 0.0 0.16
14 21:55 S 8 G 17 1.75 Heavy Rain SCT005 BKN013 OVC034 69.8 67.8 93% 29.93 0.0 1.29 1.36
14 21:35 N 21 G 37 1.00 Heavy Rain and Breezy BKN005 OVC011 69.3 67.5 94% 29.92 0.0 0.73
14 21:15 N 26 G 39 1.00 Heavy Rain and Windy BKN009 OVC017 69.8 68 94% 29.86 0.0 0.29
14 20:55 W 3 3.00 Rain SCT022 BKN032 OVC070 79.2 76.3 91% 83 29.82 0.0 0.07
14 20:35 S 12 10.00 Light Rain SCT032 BKN042 OVC075 80.1 75.7 87% 85 29.8 0.0
14 20:15 SE 7 10.00 Light Rain BKN035 BKN043 OVC080 80.1 75.2 85% 85 29.82 0.0
14 19:55 SE 7 10.00 Mostly Cloudy SCT033 BKN042 BKN048 79.9 75 85% 85 29.83 0.0
14 19:35 SE 6 10.00 Partly Cloudy SCT042 80.6 75.2 84% 86 29.84 0.0
14 19:15 S 7 10.00 Fair CLR 81.5 74.7 80% 88 29.86 0.0
14 18:55 S 8 10.00 Partly Cloudy SCT039 SCT050 83.1 75.2 85.8 81 77% 91 29.87 0.0
14 18:35 S 7 10.00 Partly Cloudy SCT033 SCT041 SCT050 82.8 75.2 78% 90 29.89 0.0
14 18:15 S 8 10.00 Partly Cloudy SCT032 SCT040 SCT048 85.1 75.6 73% 94 29.89 0.0
14 17:55 S 7 10.00 Partly Cloudy SCT038 SCT046 84.6 74.7 72% 93 29.9 0.0
14 17:35 S 7 10.00 Fair CLR 85.8 74.3 69% 94 29.9 0.0
14 17:15 SW 7 10.00 Partly Cloudy SCT035 SCT041 SCT047 85.6 73.2 67% 93 29.9 0.0
14 16:55 S 6 10.00 Mostly Cloudy SCT030 SCT037 BKN043 84.9 74.5 71% 93 29.91 0.0
14 16:35 SW 5 10.00 Mostly Cloudy SCT028 SCT034 BKN043 84.7 73 68% 91 29.91 0.0
14 16:15 S 7 10.00 Overcast SCT031 OVC038 84.9 73 68% 92 29.91 0.0
14 15:55 SW 7 10.00 Mostly Cloudy SCT030 BKN036 84.4 72.1 67% 90 29.92 0.0
14 15:35 SW 9 10.00 Mostly Cloudy BKN028 BKN034 83.8 71.6 67% 89 29.92 0.0
14 15:15 SW 12 10.00 Partly Cloudy SCT028 84.6 72.1 66% 90 29.93 0.0
14 14:55 SW 10 10.00 Fair CLR 83.7 72.3 69% 89 29.92 0.0
14 14:35 SW 14 G 17 10.00 Partly Cloudy SCT120 83.3 70.7 66% 88 29.92 0.0
14 14:15 SW 13 G 16 10.00 Partly Cloudy SCT120 81.7 70.5 69% 86 29.93 0.0
14 13:55 SW 10 G 20 10.00 Partly Cloudy SCT120 82.4 70.7 68% 87 29.92 0.0
14 13:35 SW 14 G 22 10.00 Partly Cloudy SCT120 83.5 70.2 64% 88 29.92 0.0
14 13:15 SW 15 G 20 10.00 Fair CLR 82.4 69.4 65% 86 29.93 0.0
14 12:55 SW 17 G 22 10.00 Fair CLR 81.7 68.9 81.7 66.4 65% 85 29.93 0.0 0.48
14 12:35 SW 10 10.00 Fair CLR 80.1 68.9 69% 83 29.94 0.0
14 12:15 SW 13 10.00 Fair CLR 79.2 70.2 74% 82 29.94 0.0
14 11:55 S 9 10.00 Fair CLR 77.7 68.5 73% 80 29.95 0.0
14 11:35 S 8 10.00 Fair CLR 74.5 67.5 79% 29.96 0.0
14 11:15 S 6 10.00 Fair CLR 71.4 66.2 84% 29.98 0.0
14 10:55 S 8 10.00 Fair CLR 70.2 65.8 86% 29.98 0.0
14 10:35 S 7 10.00 Fair CLR 68.5 64.9 88% 30 0.0
14 10:15 S 9 10.00 Fair CLR 67.6 64.9 91% 30.01 0.0
14 09:55 S 12 G 18 10.00 Fair CLR 66.9 64.8 93% 30.02 0.0 0.48
14 09:35 S 13 10.00 Fair CLR 67.1 64.9 93% 30.02 0.0
14 09:15 S 9 10.00 Partly Cloudy SCT120 67.1 65.3 94% 30.02 0.0
14 08:55 SW 7 10.00 Light Rain SCT120 67.5 65.3 93% 30.03 0.0 0.02
14 08:35 E 7 10.00 Light Rain SCT038 SCT075 BKN120 66.4 64.6 94% 30.01 0.0 0.02
14 08:15 E 8 10.00 Rain SCT065 OVC095 67.1 64.4 91% 30.02 0.0 0.01
14 07:55 E 8 10.00 Light Rain SCT026 BKN095 OVC120 66.7 64.6 93% 30.04 0.0 0.46
14 07:35 NE 15 G 22 1.50 Heavy Rain BKN016 BKN027 OVC035 66.6 64.9 95% 30.06 0.0 0.43
14 07:15 NW 21 G 32 2.50 Light Rain and Breezy SCT007 SCT026 BKN046 68.7 66.9 94% 30.07 0.0 0.04
14 06:55 Calm 7.00 Fair CLR 68 66.4 69.4 66.6 95% 30 0.0 0.74
14 06:35 S 3 10.00 Fair CLR 67.1 65.3 94% 29.99 0.0
14 06:15 Calm 10.00 Fair CLR 66.7 65.1 95% 30.01 0.0
14 05:55 S 5 10.00 Fair CLR 66.6 64.9 95% 30 0.0
14 05:35 S 5 10.00 Fair CLR 66.7 65.1 95% 30 0.0
14 05:15 S 7 10.00 Fair CLR 66.7 65.3 95% 29.99 0.0
14 04:55 S 6 10.00 Fair CLR 66.6 64.9 95% 29.99 0.0
14 04:35 S 7 10.00 Fair CLR 66.7 65.3 95% 29.99 0.0
14 04:15 S 7 10.00 Fair CLR 66.7 65.3 95% 29.99 0.0
14 03:55 S 9 10.00 Fair CLR 66.7 65.3 95% 29.99 0.0 0.74
14 03:35 S 8 10.00 Fair CLR 66.7 65.3 95% 29.99 0.0
14 03:15 S 6 10.00 Fair CLR 66.7 65.3 95% 30 0.0
14 02:55 S 5 10.00 Fair CLR 66.7 65.3 95% 30.01 0.0 0.01
14 02:35 Calm 10.00 Fair CLR 67.1 65.3 94% 30.03 0.0 0.01
14 02:15 Calm 10.00 Partly Cloudy SCT090 67.1 65.3 94% 30.05 0.0
14 01:55 SE 7 10.00 Mostly Cloudy BKN090 BKN110 66.9 65.3 95% 30.06 0.0 0.73
14 01:35 SE 5 10.00 Light Rain SCT013 BKN032 BKN048 66.9 65.3 95% 30.09 0.0 0.73
14 01:15 N 12 1.25 Heavy Rain OVC013 67.5 65.8 95% 30.12 0.0 0.43
14 00:55 N 20 G 23 10.00 Overcast SCT011 BKN023 OVC029 69.3 65.3 77.9 69.3 87% 30.14 0.0
14 00:35 E 8 10.00 Overcast OVC023 69.4 65.3 87% 30.09 0.0
14 00:15 E 7 10.00 Overcast OVC023 69.8 64.4 83% 30.06 0.0
13 23:55 E 14 10.00 Overcast OVC021 70.2 64.6 83% 30.09 0.0
13 23:35 NE 18 G 24 10.00 Overcast SCT021 BKN029 OVC033 71.1 65.3 82% 30.09 0.0
13 23:15 NE 17 G 22 10.00 Mostly Cloudy BKN031 73 68.9 87% 30.09 0.0
13 22:55 E 3 7.00 Fair CLR 73.6 71.8 94% 30.06 0.0
13 22:35 S 3 10.00 Partly Cloudy SCT030 73.9 72.1 94% 30.04 0.0
13 22:15 S 5 10.00 Partly Cloudy SCT030 SCT036 73.9 72.1 94% 30.04 0.0
13 21:55 SE 5 10.00 Partly Cloudy SCT030 SCT036 74.3 72 92% 30.06 0.0
13 21:35 SE 3 10.00 Partly Cloudy SCT030 74.5 71.8 91% 30.06 0.0
13 21:15 SE 6 10.00 Fair CLR 74.1 71.8 92% 30.04 0.0
13 20:55 SE 5 10.00 Fair CLR 73.9 70.9 90% 30.04 0.0
13 20:35 S 6 10.00 Fair CLR 73.8 68.5 84% 30.03 0.0
13 20:15 S 6 10.00 Fair CLR 73.6 65.7 76% 30.02 0.0
13 19:55 SE 5 10.00 Fair CLR 74.7 66.4 76% 30.03 0.0
13 19:35 SE 7 10.00 Fair CLR 75.6 68 77% 77 30.03 0.0
13 19:15 S 8 10.00 Fair CLR 77.5 68.2 73% 79 30.04 0.0
13 18:55 S 8 10.00 Fair CLR 77.9 67.6 86.7 72.1 71% 80 30.04 0.0 0.16
13 18:35 S 10 G 22 10.00 Fair CLR 78.3 66.9 68% 80 30.04 0.0
13 18:15 S 8 10.00 Fair CLR 77.7 68 72% 80 30.05 0.0
13 17:55 S 12 10.00 Fair CLR 77.2 66.9 71% 79 30.06 0.0
13 17:35 S 10 G 20 10.00 Partly Cloudy SCT031 SCT075 77.9 66 67% 80 30.06 0.0
13 17:15 SE 12 G 18 10.00 Partly Cloudy SCT055 SCT065 SCT075 78.6 66.6 67% 81 30.06 0.0
13 16:55 SE 9 G 21 10.00 Partly Cloudy SCT060 SCT065 SCT100 76.3 68.4 77% 78 30.06 0.0
13 16:35 SE 10 G 16 10.00 Fair CLR 74.3 69.4 85% 30.07 0.0
13 16:15 E 6 10.00 Light Rain SCT050 SCT070 SCT095 74.1 69.8 86% 30.07 0.0
13 15:55 E 7 10.00 Light Rain SCT019 SCT048 OVC095 73.6 70.3 90% 30.08 0.0 0.16 0.16
Date Time (cdt) Wind (mph) Vis. (mi.) Weather Sky Cond. Air Dwpt Max. Min. Relative Humidity Wind Chill (°F) Heat Index (°F) altimeter (in) sea level (mb) 1 hr 3 hr 6 hr
6 hour
Temperature (ºF) Pressure Precipitation (in)